Terug naar catalogus

COSMOS 2342

ActiefNavigatieHEO
NORAD 24800·PAYLOAD·🇷🇺 Russia

Gelanceerd May 14, 1997 vanaf Plesetsk Cosmodrome

Loading…

Volgende Passages (komende 24 uur)

TLE

VersSource: Space-Track

Epoch: Sep 13, 2026, 02:03 UTC

1 24800U 97022A   26256.08595294  .00000710  00000-0  00000+0 0  9994
2 24800  67.6244 241.7106 6464927 125.1925 313.2977  1.99579133214162

Volg COSMOS 2342 in realtime met AllMySat

Download on the App Store